Location: ??????
(38.5793°N, 24.1314°E)
Time: 09:08:14
(UTC+00:00)

Daily predictions for brighter satellites

Satellite Brightness Start Highest point End
(mag) Time Altitude Azimuth Time Altitude Azimuth Time Altitude Azimuth
NOAA 12 4.1 15:22:44 10° SSE 15:28:02 75° ENE 15:33:21 10° N
Cosmos 2279 Rocket 4.3 15:24:18 10° SSE 15:30:08 45° E 15:35:58 10° NNE
Cosmos 1666 3.6 15:27:42 10° NNE 15:30:50 25° ENE 15:33:58 10° SE
USA 229 DEB 4.5 15:24:33 10° NW 15:31:59 70° WSW 15:39:48 10° SSE
Cosmos 1818 4.5 15:27:23 10° N 15:32:03 28° NE 15:36:40 10° ESE
USA 229 4.4 15:24:38 10° NW 15:32:04 70° WSW 15:39:53 10° SSE
SL-08 R/B 4.2 15:28:29 10° N 15:32:59 49° WNW 15:37:24 10° SSW
ISS -3.6 15:30:51 10° NW 15:34:10 53° NE 15:37:29 10° ESE
Meteor 2-14 Rocket 4.4 15:28:09 10° N 15:34:13 66° E 15:40:13 10° SSE
Cosmos 1627 Rocket 4.4 15:29:00 10° N 15:35:09 75° E 15:41:14 10° SSE
Cosmos 841 Rocket 4.0 15:30:38 10° SSW 15:35:44 61° WNW 15:40:50 10° NNE
CZ-4C R/B 3.2 15:31:25 10° NNW 15:38:42 55° NE 15:47:02 10° SE
CZ-2C R/B 2.2 15:36:26 10° WSW 15:40:33 43° S 15:44:35 10° E
Meteor PRIRODA 4.1 15:38:04 10° S 15:41:40 63° W 15:45:16 10° NNW
USA 234 3.9 15:37:36 10° E 15:43:24 35° NNE 15:49:11 10° NNW
Cosmos 2208 Rocket 4.1 15:39:22 10° S 15:44:41 65° ESE 15:50:05 10° NNE
Cosmos 1697 Rocket 3.7 15:40:09 10° NNW 15:45:35 52° WSW 15:51:00 10° S
Cosmos 372 Rocket 4.0 15:42:15 10° NNW 15:47:31 82° ENE 15:52:46 10° SSE
Cosmos 2322 Rocket 3.6 15:44:22 10° N 15:48:08 18° NE 15:51:53 10° E
Cosmos 1937 Rocket 4.2 15:43:36 10° NNW 15:48:51 60° WSW 15:54:01 10° S
Lacrosse 5 rocket 2.4 15:46:39 10° NNW 15:49:58 25° NE 15:53:16 11° E
AQUARIUS 4.1 15:45:35 10° SSE 15:50:00 65° ENE 15:54:28 10° N
CORIOLIS 4.1 15:46:24 10° SSE 15:51:45 71° ENE 15:57:10 10° N
Cosmos 1328 Rocket 3.8 15:47:32 10° SSE 15:51:49 50° E 15:56:07 10° NNE
Cosmos 1980 Rocket 2.2 15:46:12 10° NNW 15:51:54 87° ENE 15:57:30 10° SSE
Cosmos 1634 Rocket 4.3 15:46:05 10° SSW 15:52:23 74° W 15:58:44 10° N
Cosmos 1867 4.4 15:48:45 10° S 15:53:31 32° ESE 15:57:46 13° NE
Cosmos 2026 Rocket 4.1 15:49:30 10° N 15:55:36 78° W 16:01:38 10° S
Tiangong 2.8 15:53:29 10° SSW 15:56:01 22° SSE 15:58:00 13° ESE
H-2A R/B 2.3 15:51:15 10° SE 15:56:07 45° ENE 16:00:53 10° N
Cosmos 1666 Rocket 3.5 15:52:03 10° N 15:56:26 64° E 16:00:45 10° SSE
Cosmos 1125 Rocket 4.3 15:53:46 10° N 15:58:15 28° ENE 16:02:44 10° ESE
Cosmos 1812 3.0 15:55:53 10° SSW 15:59:43 72° W 16:03:34 10° N
Cosmos 1470 Rocket 4.3 15:55:58 10° NNE 16:00:00 32° ENE 16:04:01 10° SE
PSLV R/B 3.7 15:56:53 10° SSE 16:00:28 55° ENE 16:04:09 10° N
Okean O Rocket 2.6 15:57:34 10° ESE 16:01:12 25° ENE 16:04:50 10° NNE
Meteor 2-21 Rocket 4.4 15:56:39 10° N 16:02:45 83° E 16:08:47 10° S
Cosmos 1544 4.2 16:00:03 10° NNE 16:02:58 22° ENE 16:05:52 10° SE
CZ-2C R/B 4.4 15:58:35 10° SSW 16:03:09 40° W 16:07:38 10° NNW
Cosmos 2369 4.4 15:57:51 10° NNW 16:03:28 58° WSW 16:09:02 10° S
X-37B 0.4 16:02:06 10° WSW 16:04:58 73° NNW 16:06:35 23° ENE
ARGOS 3.7 16:02:19 10° SE 16:07:10 35° ENE 16:12:01 10° N
Cosmos 2082 Rocket 3.5 16:01:56 10° SW 16:07:12 39° WNW 16:12:29 10° N
SL-16 R/B 2.8 16:03:58 10° N 16:09:03 33° ENE 16:14:05 10° ESE
Sich 1 4.4 16:07:54 10° NNW 16:11:58 41° W 16:16:02 10° SSW
SMAP 3.7 16:09:01 10° S 16:13:35 58° W 16:18:11 10° NNW
Meteor 1-5 Rocket 4.3 16:08:22 10° N 16:14:21 85° E 16:20:10 10° S
SKYMED 2 3.7 16:11:12 10° NNE 16:15:29 54° E 16:19:43 10° S
deb Chang Zheng 4 3.9 16:13:12 10° SE 16:17:15 41° ENE 16:21:19 10° N
CZ-4B DEB 4.5 16:18:35 10° S 16:24:04 71° WSW 16:29:34 10° NNW
Cosmos 2278 4.0 16:20:18 10° NNW 16:25:59 69° WSW 16:31:36 10° SSE
Cosmos 2333 Rocket 4.3 16:25:53 10° NNE 16:26:02 10° NNE 16:26:02 10° NNE
Aureole 3 Rocket 3.7 16:24:37 10° SSE 16:28:37 42° E 16:34:06 10° NNE
CZ-2C R/B 2.5 16:27:15 10° NNE 16:32:27 84° ESE 16:37:37 10° SSW
USA 305 4.3 16:29:38 10° NNW 16:32:51 22° NNE 16:32:51 22° NNE
Cosmos 1655 Rocket 3.9 16:28:38 10° N 16:35:01 69° E 16:41:18 10° SSE
Cosmos 1356 Rocket 3.6 16:31:35 10° N 16:35:43 50° ENE 16:39:52 10° SSE
Cosmos 1515 Rocket 3.5 16:34:24 10° S 16:38:50 88° W 16:43:15 10° N
Cosmos 44 Rocket 3.2 16:35:24 10° NNW 16:40:17 87° WSW 16:45:00 10° SSE
Cosmos 921 Rocket 4.0 16:37:47 10° SW 16:41:48 44° WNW 16:45:53 10° N
Cosmos 2228 Rocket 4.1 16:41:32 10° SSE 16:44:07 28° SE 16:44:07 28° SE
CZ-4 R/B 4.3 16:42:48 10° SSE 16:46:55 77° ENE 16:51:03 10° N
CZ-4B R/B 3.2 16:44:45 10° S 16:50:09 79° WSW 16:55:31 10° NNW
USA 267 4.4 16:50:26 16° NNE 16:54:45 33° NNW 17:00:26 10° W
IRAS Rocket 4.5 16:57:20 43° E 16:57:23 43° E 17:02:38 10° S
Cosmos 2298 Rocket 4.2 16:53:24 10° NNW 16:58:43 73° WSW 17:04:00 10° S
Meteor 1-27 Rocket 3.6 16:53:50 10° S 16:59:21 89° W 17:04:01 15° N
Cosmos 1833 4.2 16:57:03 10° S 17:02:30 55° ESE 17:03:02 53° E
CZ-4C R/B 3.6 17:03:23 50° SSW 17:03:23 50° SSW 17:06:01 10° SSW
COSMO-SKYMED 1 3.7 16:59:23 10° N 17:03:28 41° WNW 17:07:32 10° SW
USA 306 4.4 17:01:39 10° NNW 17:03:51 24° N 17:03:51 24° N
Landsat 5 4.0 17:05:03 30° NNW 17:06:46 53° WNW 17:10:33 10° SSW
Genesis I 3.5 17:05:03 10° SSW 17:08:21 63° SW 17:08:21 63° SW
Cosmos 2360 Rocket 3.0 17:04:38 10° N 17:08:17 35° NNE 17:08:17 35° NNE
ISS -0.7 17:08:36 10° W 17:10:40 15° SW 17:12:44 10° SSW
Cosmos 2237 4.1 17:07:39 10° NNW 17:13:21 67° ENE 17:13:44 65° E
Cosmos 783 Rocket 4.4 17:13:07 10° SSW 17:18:08 75° SE 17:18:08 75° SE
CZ-2C R/B 2.2 17:15:43 10° W 17:19:13 46° SW 17:19:13 46° SW
DMSP B5D2-2 4.0 17:19:41 63° N 17:20:33 88° WNW 17:25:48 10° SSW
SL-08 RB Rocket 4.1 17:17:17 10° S 17:21:52 61° W 17:26:25 10° NNW
ATLAS 5 CENTAUR R/B 4.0 17:18:18 10° NNW 17:19:39 17° NNW 17:19:39 17° NNW
USA 234 3.3 17:22:35 31° SE 17:26:01 77° SW 17:32:35 10° NW
Cosmos 773 Rocket 4.1 17:21:35 10° SSW 17:26:05 65° S 17:26:05 65° S
CZ-4C R/B 4.4 17:20:16 10° NW 17:27:17 38° WSW 17:35:01 10° S
Lacrosse 5 rocket 2.5 17:25:20 10° WNW 17:28:57 40° WSW 17:28:57 40° WSW
Tiangong 4.2 17:29:24 10° WSW 17:30:10 16° WSW 17:30:10 16° WSW
Cosmos 2322 Rocket 2.4 17:27:03 10° NNW 17:32:44 70° WSW 17:35:03 36° S
NOSS 3-3 (A) 4.3 17:31:41 10° SW 17:37:09 54° NW 17:38:22 46° NNW
NOSS 3-3 (C) 4.3 17:31:46 10° SW 17:37:15 54° NW 17:38:27 47° NNW
Okean O Rocket 3.6 17:33:36 10° SSW 17:37:24 28° W 17:41:15 10° NW
SL-16 R/B 3.7 17:48:03 10° NW 17:53:05 33° WSW 17:58:05 10° SSW
